Weather in Suzhou

China     33°38′21″N   116°58′40″E
temp.,
°C
wind,
m/s
gust,
m/s
humid.,
%
clouds,
%
prec.,
mm/h
press.,
hPa
HPBL,
m
10 april, sat
sat1023:00+12se2355100 0.0 102630
02:00+10ese3867100 0.0 1025154
05:00+8e34745 0.0 102555
08:00+12ese610582 0.0 1027354
11:00+17ese68394 0.0 10271027
14:00+19ese6834100 0.0 10251488
17:00+17ese5951100 0.0 1023703
20:00+13ese31071100 0.0 1024209
11 april, sun
sun1123:00+12ese61371100 0.0 1025426
02:00+9e5128545 0.0 1024305
05:00+8e5119683 0.0 1023287
08:00+12ese61084100 0.0 1024461
11:00+17se6873100 0.0 1023988
14:00+16ese4783100 0.1 1021653
17:00+15ese4790100 0.1 1019350
20:00+13e2497100 0.2 1020109
12 april, mon
mon1223:00+13se1198100 0.0 101923
02:00+13wnw1198100 0.1 101816
05:00+13nw239792 0.0 101784
08:00+14nw2387100 0.0 1018342
11:00+18nw3467100 0.1 10171050
14:00+20wnw4559100 0.1 10151494
17:00+20wsw2466100 0.0 1014360
20:00+16sw117618 0.0 101611
13 april, tue
tue1323:00+14sw228398 0.0 101714
02:00+13w228039 0.0 101725
05:00+13nw237721 0.0 101829
08:00+16n476679 0.0 1020358
11:00+18ene6662100 0.0 10221131
14:00+18ene5559100 0.0 10201392
17:00+16ene4665100 0.0 1020599
20:00+12e3675100 0.0 1022123
14 april, wed
wed1423:00+9e398497 0.0 1024205
02:00+8e4964100 0.0 1024242
05:00+7e386816 0.0 1023183
08:00+11se45575 0.0 1024349
11:00+16se4444100 0.0 1024987
14:00+18sse4435100 0.0 10211663
17:00+17se4645100 0.0 1020619
20:00+11ese385795 0.0 1020147